"Period start","avg(HW err(1)/warn(2) (#))","avg(Visibility (m))","avg(Weather code (#))","avg(Precip intensity (mm/h))","min(HW err(1)/warn(2) (#))","max(HW err(1)/warn(2) (#))","std(HW err(1)/warn(2) (#))","med(HW err(1)/warn(2) (#))","min(Visibility (m))","max(Visibility (m))","std(Visibility (m))","med(Visibility (m))","min(Weather code (#))","max(Weather code (#))","std(Weather code (#))","med(Weather code (#))","min(Precip intensity (mm/h))","max(Precip intensity (mm/h))","std(Precip intensity (mm/h))","med(Precip intensity (mm/h))"
2017-06-22 00:00:00,2,42901,0,0.00,0,2,1,2,31489,50000,4952,43040,0,0,0,0,0.00,0.00,0.00,0.00
2017-06-22 00:10:00,2,41771,0,0.00,0,2,1,2,32470,49816,5051,41876,0,0,0,0,0.00,0.00,0.00,0.00
2017-06-22 00:20:00,2,30553,0,0.00,2,2,0,2,18448,42705,7635,28876,0,0,0,0,0.00,0.00,0.00,0.00
2017-06-22 00:30:00,2,37815,0,0.00,2,2,0,2,25239,50000,6657,38846,0,0,0,0,0.00,0.00,0.00,0.00
2017-06-22 00:40:00,2,41237,0,0.00,2,2,0,2,21833,50000,10496,46304,0,0,0,0,0.00,0.00,0.00,0.00
2017-06-22 00:50:00,2,46574,0,0.00,2,2,0,2,36998,50000,4737,48481,0,0,0,0,0.00,0.00,0.00,0.00
2017-06-22 01:00:00,2,34424,0,0.00,2,2,0,2,19224,46975,8404,35976,0,0,0,0,0.00,0.00,0.00,0.00
2017-06-22 01:10:00,2,42786,0,0.00,2,2,0,2,31589,50000,6527,41540,0,0,0,0,0.00,0.00,0.00,0.00
2017-06-22 01:20:00,2,41029,0,0.00,2,2,0,2,27290,50000,7910,42617,0,0,0,0,0.00,0.00,0.00,0.00
2017-06-22 01:30:00,2,39633,0,0.00,2,2,0,2,35082,49617,4080,38599,0,0,0,0,0.00,0.00,0.00,0.00
2017-06-22 01:40:00,2,46397,0,0.00,2,2,0,2,37313,50000,4349,48408,0,0,0,0,0.00,0.00,0.00,0.00
2017-06-22 01:50:00,2,48169,0,0.00,2,2,0,2,41677,50000,2638,49726,0,0,0,0,0.00,0.00,0.00,0.00
2017-06-22 02:00:00,2,41836,0,0.00,2,2,0,2,27517,50000,7869,44033,0,0,0,0,0.00,0.00,0.00,0.00
2017-06-22 02:10:00,2,46771,0,0.00,2,2,0,2,42078,50000,3057,47536,0,0,0,0,0.00,0.00,0.00,0.00
2017-06-22 02:20:00,2,48090,0,0.00,2,2,0,2,42400,50000,2564,49354,0,0,0,0,0.00,0.00,0.00,0.00
2017-06-22 02:30:00,2,44274,0,0.00,2,2,0,2,33850,50000,6248,46562,0,0,0,0,0.00,0.00,0.00,0.00
2017-06-22 02:40:00,2,44343,0,0.00,2,2,0,2,30714,50000,6142,45238,0,0,0,0,0.00,0.00,0.00,0.00
2017-06-22 02:50:00,2,44078,0,0.00,2,2,0,2,33531,50000,5478,44143,0,0,0,0,0.00,0.00,0.00,0.00
2017-06-22 03:00:00,2,43846,0,0.00,2,2,0,2,36416,50000,3864,43695,0,0,0,0,0.00,0.00,0.00,0.00
2017-06-22 03:10:00,2,48744,0,0.00,2,2,0,2,45175,50000,1941,50000,0,0,0,0,0.00,0.00,0.00,0.00
2017-06-22 03:20:00,2,44200,0,0.00,2,2,0,2,33830,50000,5527,44153,0,0,0,0,0.00,0.00,0.00,0.00
2017-06-22 03:30:00,2,39204,0,0.00,2,2,0,2,28380,50000,6585,38272,0,0,0,0,0.00,0.00,0.00,0.00
2017-06-22 03:40:00,2,47416,0,0.00,2,2,0,2,42361,50000,3097,49482,0,0,0,0,0.00,0.00,0.00,0.00
2017-06-22 03:50:00,2,47974,0,0.00,2,2,0,2,36646,50000,4090,50000,0,0,0,0,0.00,0.00,0.00,0.00
2017-06-22 04:00:00,2,45568,0,0.00,0,2,1,2,33192,50000,5915,49112,0,0,0,0,0.00,0.00,0.00,0.00
2017-06-22 04:10:00,0,48188,0,0.00,0,2,1,0,42569,50000,2448,49622,0,0,0,0,0.00,0.00,0.00,0.00
2017-06-22 04:20:00,2,46725,0,0.00,2,2,0,2,33287,50000,5459,50000,0,0,0,0,0.00,0.00,0.00,0.00
2017-06-22 04:30:00,2,47689,0,0.00,0,2,1,2,38809,50000,3594,50000,0,0,0,0,0.00,0.00,0.00,0.00
2017-06-22 04:40:00,1,48520,0,0.00,0,2,1,0,39989,50000,2935,50000,0,0,0,0,0.00,0.00,0.00,0.00
2017-06-22 04:50:00,2,48620,0,0.00,2,2,0,2,46665,50000,1387,49116,0,0,0,0,0.00,0.00,0.00,0.00
2017-06-22 05:00:00,2,42153,0,0.00,2,2,0,2,29032,50000,8042,44962,0,0,0,0,0.00,0.00,0.00,0.00
2017-06-22 05:10:00,2,48973,0,0.00,0,2,1,2,44937,50000,1916,50000,0,0,0,0,0.00,0.00,0.00,0.00
2017-06-22 05:20:00,2,46405,0,0.00,0,2,1,2,38720,50000,3978,48582,0,0,0,0,0.00,0.00,0.00,0.00
2017-06-22 05:30:00,2,39629,0,0.00,2,2,0,2,15563,50000,11624,45234,0,0,0,0,0.00,0.00,0.00,0.00
2017-06-22 05:40:00,1,43109,0,0.00,0,2,1,2,17621,50000,8935,45213,0,0,0,0,0.00,0.00,0.00,0.00
2017-06-22 05:50:00,1,26204,0,0.00,0,2,1,1,8670,39098,10267,29994,0,0,0,0,0.00,0.00,0.00,0.00
2017-06-22 06:00:00,2,22913,0,0.00,0,2,1,2,9229,42308,11330,18652,0,0,0,0,0.00,0.00,0.00,0.00
2017-06-22 06:10:00,2,19404,0,0.00,2,2,0,2,7472,36415,9085,16434,0,0,0,0,0.00,0.00,0.00,0.00
2017-06-22 06:20:00,2,38538,0,0.00,2,2,0,2,17500,50000,9834,41638,0,0,0,0,0.00,0.00,0.00,0.00
2017-06-22 06:30:00,2,8530,3,0.00,2,2,0,2,2379,18347,5406,7857,0,10,5,0,0.00,0.00,0.00,0.00
2017-06-22 06:40:00,2,1930,10,0.00,2,2,0,2,1091,3757,778,1853,10,10,0,10,0.00,0.00,0.00,0.00
2017-06-22 06:50:00,2,6364,10,0.00,2,2,0,2,1769,11372,2535,6128,10,10,0,10,0.00,0.00,0.00,0.00
2017-06-22 07:00:00,2,16939,10,0.00,2,2,0,2,6895,33011,7931,14024,10,10,0,10,0.00,0.00,0.00,0.00
2017-06-22 07:10:00,2,44352,0,0.00,2,2,0,2,35259,50000,5010,44499,0,0,0,0,0.00,0.00,0.00,0.00
2017-06-22 07:20:00,2,47870,0,0.00,2,2,0,2,38621,50000,3544,49775,0,0,0,0,0.00,0.00,0.00,0.00
2017-06-22 07:30:00,2,48738,0,0.00,2,2,0,2,44613,50000,1928,50000,0,0,0,0,0.00,0.00,0.00,0.00
2017-06-22 07:40:00,2,49183,0,0.00,2,2,0,2,46114,50000,1333,50000,0,0,0,0,0.00,0.00,0.00,0.00
2017-06-22 07:50:00,2,48412,0,0.00,2,2,0,2,41141,50000,2888,50000,0,0,0,0,0.00,0.00,0.00,0.00
2017-06-22 08:00:00,2,49607,0,0.00,2,2,0,2,46070,50000,1179,50000,0,0,0,0,0.00,0.00,0.00,0.00
2017-06-22 08:10:00,2,49551,0,0.00,2,2,0,2,45512,50000,1346,50000,0,0,0,0,0.00,0.00,0.00,0.00
2017-06-22 08:20:00,2,49902,0,0.00,2,2,0,2,49436,50000,199,50000,0,0,0,0,0.00,0.00,0.00,0.00
2017-06-22 08:30:00,2,49404,0,0.00,2,2,0,2,47905,50000,807,50000,0,0,0,0,0.00,0.00,0.00,0.00
2017-06-22 08:40:00,2,49667,0,0.00,2,2,0,2,46669,50000,999,50000,0,0,0,0,0.00,0.00,0.00,0.00
2017-06-22 08:50:00,2,50000,0,0.00,2,2,0,2,50000,50000,0,50000,0,0,0,0,0.00,0.00,0.00,0.00
2017-06-22 09:00:00,2,50000,0,0.00,2,2,0,2,50000,50000,0,50000,0,0,0,0,0.00,0.00,0.00,0.00
2017-06-22 09:10:00,2,50000,0,0.00,2,2,0,2,50000,50000,0,50000,0,0,0,0,0.00,0.00,0.00,0.00
2017-06-22 09:20:00,2,50000,0,0.00,2,2,0,2,50000,50000,0,50000,0,0,0,0,0.00,0.00,0.00,0.00
2017-06-22 09:30:00,2,49528,0,0.00,2,2,0,2,46562,50000,1060,50000,0,0,0,0,0.00,0.00,0.00,0.00
2017-06-22 09:40:00,2,50000,0,0.00,2,2,0,2,50000,50000,0,50000,0,0,0,0,0.00,0.00,0.00,0.00
2017-06-22 09:50:00,2,50000,0,0.00,2,2,0,2,50000,50000,0,50000,0,0,0,0,0.00,0.00,0.00,0.00
2017-06-22 10:00:00,2,50000,0,0.00,2,2,0,2,50000,50000,0,50000,0,0,0,0,0.00,0.00,0.00,0.00
2017-06-22 10:10:00,2,50000,0,0.00,2,2,0,2,50000,50000,0,50000,0,0,0,0,0.00,0.00,0.00,0.00
2017-06-22 10:20:00,2,50000,0,0.00,2,2,0,2,50000,50000,0,50000,0,0,0,0,0.00,0.00,0.00,0.00
2017-06-22 10:30:00,2,49819,0,0.00,2,2,0,2,48187,50000,544,50000,0,0,0,0,0.00,0.00,0.00,0.00
2017-06-22 10:40:00,2,37451,51,0.88,2,2,0,2,18083,50000,11143,41306,0,61,19,61,0.00,2.60,0.81,0.62
2017-06-22 10:50:00,2,11382,61,2.58,2,2,0,2,9385,13503,1361,11042,61,61,0,61,0.70,4.95,1.41,2.97
2017-06-22 11:00:00,2,18550,61,0.47,2,2,0,2,14462,25127,2888,17852,61,61,0,61,0.15,1.15,0.31,0.38
2017-06-22 11:10:00,2,44309,30,0.11,2,2,0,2,30828,50000,7351,49169,0,61,30,26,0.00,0.95,0.28,0.00
2017-06-22 11:20:00,2,19773,54,0.94,2,2,0,2,12705,27674,5026,20124,52,61,4,52,0.40,1.35,0.32,1.02
2017-06-22 11:30:00,2,13215,56,6.84,2,2,0,2,4440,23463,6949,11090,52,62,5,52,0.25,19.60,7.22,3.78
2017-06-22 11:40:00,2,5123,62,17.83,2,2,0,2,3910,7332,1071,4884,61,62,0,62,6.75,28.55,6.56,15.73
2017-06-22 11:50:00,2,3192,68,16.05,2,2,0,2,1288,5705,1551,2519,61,75,4,68,4.35,49.60,12.92,13.40
2017-06-22 12:00:00,2,5594,66,8.25,2,2,0,2,3277,8030,1431,5624,61,74,4,67,4.25,13.85,3.21,7.05
2017-06-22 12:10:00,2,8716,61,7.17,2,2,0,2,5696,13166,2730,8459,61,62,0,61,3.30,11.30,2.67,7.58
2017-06-22 12:20:00,2,39144,59,0.40,2,2,0,2,20692,50000,10636,43169,51,61,4,61,0.00,1.15,0.39,0.23
2017-06-22 12:30:00,1,41883,51,0.39,0,2,1,1,25969,50000,7608,43688,51,52,0,51,0.00,1.10,0.42,0.20
2017-06-22 12:40:00,0,35059,61,1.32,0,0,0,0,15939,48856,9794,38260,61,61,0,61,0.10,5.50,1.56,0.73
2017-06-22 12:50:00,0,47455,5,0.01,0,0,0,0,43243,50000,2530,48359,0,51,15,0,0.00,0.05,0.02,0.00
2017-06-22 13:00:00,0,50000,0,0.00,0,0,0,0,50000,50000,0,50000,0,0,0,0,0.00,0.00,0.00,0.00
2017-06-22 13:10:00,0,50000,0,0.00,0,2,1,0,50000,50000,0,50000,0,0,0,0,0.00,0.00,0.00,0.00
2017-06-22 13:20:00,0,50000,0,0.00,0,0,0,0,50000,50000,0,50000,0,0,0,0,0.00,0.00,0.00,0.00
2017-06-22 13:30:00,0,50000,0,0.00,0,0,0,0,50000,50000,0,50000,0,0,0,0,0.00,0.00,0.00,0.00
2017-06-22 13:40:00,0,49894,0,0.00,0,0,0,0,48939,50000,318,50000,0,0,0,0,0.00,0.00,0.00,0.00
2017-06-22 13:50:00,0,50000,0,0.00,0,0,0,0,50000,50000,0,50000,0,0,0,0,0.00,0.00,0.00,0.00
2017-06-22 14:00:00,0,50000,0,0.00,0,0,0,0,50000,50000,0,50000,0,0,0,0,0.00,0.00,0.00,0.00
2017-06-22 14:10:00,0,50000,0,0.00,0,0,0,0,50000,50000,0,50000,0,0,0,0,0.00,0.00,0.00,0.00
2017-06-22 14:20:00,0,50000,0,0.00,0,0,0,0,50000,50000,0,50000,0,0,0,0,0.00,0.00,0.00,0.00
2017-06-22 14:30:00,0,50000,0,0.00,0,0,0,0,50000,50000,0,50000,0,0,0,0,0.00,0.00,0.00,0.00
2017-06-22 14:40:00,0,49946,0,0.00,0,0,0,0,49460,50000,162,50000,0,0,0,0,0.00,0.00,0.00,0.00
2017-06-22 14:50:00,0,49743,0,0.00,0,0,0,0,48183,50000,566,50000,0,0,0,0,0.00,0.00,0.00,0.00
2017-06-22 15:00:00,0,50000,0,0.00,0,0,0,0,50000,50000,0,50000,0,0,0,0,0.00,0.00,0.00,0.00
2017-06-22 15:10:00,0,49818,0,0.00,0,0,0,0,48381,50000,483,50000,0,0,0,0,0.00,0.00,0.00,0.00
2017-06-22 15:20:00,0,49803,0,0.00,0,0,0,0,49074,50000,362,50000,0,0,0,0,0.00,0.00,0.00,0.00
2017-06-22 15:30:00,0,50000,0,0.00,0,0,0,0,50000,50000,0,50000,0,0,0,0,0.00,0.00,0.00,0.00
2017-06-22 15:40:00,0,49999,0,0.00,0,0,0,0,49990,50000,3,50000,0,0,0,0,0.00,0.00,0.00,0.00
2017-06-22 15:50:00,0,50000,0,0.00,0,0,0,0,50000,50000,0,50000,0,0,0,0,0.00,0.00,0.00,0.00
2017-06-22 16:00:00,0,50000,0,0.00,0,0,0,0,50000,50000,0,50000,0,0,0,0,0.00,0.00,0.00,0.00
2017-06-22 16:10:00,0,49862,0,0.00,0,0,0,0,48616,50000,415,50000,0,0,0,0,0.00,0.00,0.00,0.00
2017-06-22 16:20:00,0,50000,0,0.00,0,0,0,0,50000,50000,0,50000,0,0,0,0,0.00,0.00,0.00,0.00
2017-06-22 16:30:00,0,46136,0,0.00,0,0,0,0,28689,50000,7779,50000,0,0,0,0,0.00,0.00,0.00,0.00
2017-06-22 16:40:00,0,37290,55,3.94,0,0,0,0,14579,50000,12203,38250,40,61,10,61,0.35,17.65,5.02,1.90
2017-06-22 16:50:00,0,16022,61,7.97,0,0,0,0,12599,24228,3486,15122,61,62,0,61,1.80,17.55,4.42,7.68
2017-06-22 17:00:00,0,9502,62,24.00,0,0,0,0,7428,11617,1244,9476,62,63,0,62,15.40,42.95,9.14,21.02
2017-06-22 17:10:00,0,4912,62,27.65,0,0,0,0,2727,9027,1937,3992,62,63,0,62,17.10,57.25,11.77,23.75
2017-06-22 17:20:00,0,7443,62,15.94,0,0,0,0,5783,10335,1287,7275,61,62,0,62,8.20,22.40,4.41,16.45
2017-06-22 17:30:00,0,19411,61,6.23,0,0,0,0,16006,24367,2326,19318,61,62,0,61,2.65,11.75,2.83,6.08
2017-06-22 17:40:00,0,17035,61,7.85,0,0,0,0,12025,21092,3008,16413,61,62,0,61,2.70,16.00,3.69,7.53
2017-06-22 17:50:00,0,13441,61,6.15,0,0,0,0,8685,18367,2750,13198,61,62,0,61,3.15,10.00,2.15,5.62
2017-06-22 18:00:00,2,20394,61,2.44,0,2,1,2,15276,26906,3701,19848,61,61,0,61,0.85,6.25,1.47,2.30
2017-06-22 18:10:00,2,28070,61,0.46,2,2,0,2,22680,37068,4007,27172,61,61,0,61,0.20,1.15,0.29,0.35
2017-06-22 18:20:00,2,25238,55,1.18,2,2,0,2,18682,31546,3978,26196,52,61,4,52,0.35,2.15,0.61,1.07
2017-06-22 18:30:00,2,40608,56,0.30,2,2,0,2,33480,47119,4372,41682,51,61,5,56,0.05,0.80,0.20,0.28
2017-06-22 18:40:00,2,27629,51,0.24,2,2,0,2,21637,34892,4042,26974,51,51,0,51,0.05,0.35,0.09,0.28
2017-06-22 18:50:00,2,17128,52,1.07,2,2,0,2,10579,23740,4524,18646,51,61,3,52,0.20,3.30,0.99,0.55
2017-06-22 19:00:00,2,26482,61,0.71,2,2,0,2,16181,37971,6263,26782,61,61,0,61,0.10,1.50,0.50,0.60
2017-06-22 19:10:00,2,40864,56,0.20,2,2,0,2,35219,45512,3059,41196,51,61,5,56,0.00,0.80,0.22,0.15
2017-06-22 19:20:00,2,36600,51,0.18,2,2,0,2,29974,46342,4616,35867,51,51,0,51,0.10,0.35,0.06,0.15
2017-06-22 19:30:00,2,45157,36,0.07,2,2,0,2,27394,50000,7113,48358,0,51,23,51,0.00,0.25,0.10,0.00
2017-06-22 19:40:00,2,50000,0,0.00,2,2,0,2,50000,50000,0,50000,0,0,0,0,0.00,0.00,0.00,0.00
2017-06-22 19:50:00,1,50000,0,0.00,0,2,1,0,50000,50000,0,50000,0,0,0,0,0.00,0.00,0.00,0.00
2017-06-22 20:00:00,0,50000,0,0.00,0,0,0,0,50000,50000,0,50000,0,0,0,0,0.00,0.00,0.00,0.00
2017-06-22 20:10:00,0,49020,0,0.00,0,0,0,0,42778,50000,2167,50000,0,0,0,0,0.00,0.00,0.00,0.00
2017-06-22 20:20:00,0,49953,0,0.00,0,0,0,0,49533,50000,140,50000,0,0,0,0,0.00,0.00,0.00,0.00
2017-06-22 20:30:00,0,49874,0,0.00,0,0,0,0,49024,50000,291,50000,0,0,0,0,0.00,0.00,0.00,0.00
2017-06-22 20:40:00,0,49385,0,0.00,0,0,0,0,45854,50000,1242,50000,0,0,0,0,0.00,0.00,0.00,0.00
2017-06-22 20:50:00,0,49712,0,0.00,0,0,0,0,48890,50000,453,50000,0,0,0,0,0.00,0.00,0.00,0.00
2017-06-22 21:00:00,0,49908,0,0.00,0,0,0,0,49078,50000,277,50000,0,0,0,0,0.00,0.00,0.00,0.00
2017-06-22 21:10:00,0,50000,0,0.00,0,0,0,0,50000,50000,0,50000,0,0,0,0,0.00,0.00,0.00,0.00
2017-06-22 21:20:00,0,50000,0,0.00,0,0,0,0,50000,50000,0,50000,0,0,0,0,0.00,0.00,0.00,0.00
2017-06-22 21:30:00,0,46553,0,0.00,0,0,0,0,30160,50000,6256,49810,0,0,0,0,0.00,0.00,0.00,0.00
2017-06-22 21:40:00,0,16918,2,0.00,0,0,0,0,3523,49468,17482,5663,0,10,4,0,0.00,0.00,0.00,0.00
2017-06-22 21:50:00,0,6713,10,0.00,0,0,0,0,4561,9564,1596,6346,10,10,0,10,0.00,0.00,0.00,0.00
2017-06-22 22:00:00,0,6370,10,0.00,0,0,0,0,4573,9521,1318,6096,10,10,0,10,0.00,0.00,0.00,0.00
2017-06-22 22:10:00,2,3020,36,0.41,2,2,0,2,1271,4892,1095,3114,10,61,18,41,0.00,1.40,0.43,0.35
2017-06-22 22:20:00,2,995,61,1.58,2,2,0,2,794,1326,187,880,61,61,0,61,0.85,2.40,0.46,1.52
